Weather History for Swansboro, NC

Change the Weather History Date:

Wednesday, April 3, 2013

  Actual Average (KNKT) Record (KNKT)
Temperature  
Mean Temperature 50 °F -  
Max Temperature 55 °F 67 °F 82 °F (2007)
Min Temperature 44 °F 47 °F 37 °F (2011)
Degree Days  
Heating Degree Days 16    
Moisture  
Dew Point 36 °F    
Average Humidity 62    
Maximum Humidity 93    
Minimum Humidity 37    
Precipitation  
Precipitation 0.00 in - - ()
Sea Level Pressure  
Sea Level Pressure 30.23 in    
Wind  
Wind Speed 5 mph (NE)    
Max Wind Speed 12 mph    
Max Gust Speed 17 mph    
Visibility 10 miles    
Events Rain    
Averages and records for this station are not official NWS values.
T = Trace of Precipitation, MM = Missing Value Source: NWS Daily Summary

Daily Weather History Graph

Daily Weather History Graph

Search for Another Location

Airport:

Trip Planner

Search our weather history database for the weather conditions in past years. The results will help you decide how hot, cold, wet, or windy it might be!

Date:

Astronomy

Apr. 03, 2013 Rise Set
Actual Time 6:52 AM EDT 7:31 PM EDT
Civil Twilight 6:26 AM EDT 7:56 PM EDT
Nautical Twilight 5:56 AM EDT 8:26 PM EDT
Astronomical Twilight 5:26 AM EDT 8:57 PM EDT
Moon 2:15 AM EDT (4/3) 12:55 PM EDT (4/3)
Length of Visible Light 13h 29m
Length of Day
12h 38m
Last Quarter, 45% of the Moon is Illuminated
Apr 3
Last Quarter
Apr 10
New
Apr 18
First Quarter
Apr 25
Full
May 2
Last Quarter

Hourly Weather History & Observations

Time (EDT) Temp. Windchill Dew Point Humidity Pressure Visibility Wind Dir Wind Speed Gust Speed Precip Events Conditions
12:57 AM 44.1 °F - 39.9 °F 85% 30.14 in 9.0 mi Calm Calm - N/A   Mostly Cloudy
1:57 AM 44.1 °F - 42.1 °F 93% 30.15 in 8.0 mi Calm Calm - N/A   Mostly Cloudy
2:57 AM 46.9 °F - 44.1 °F 90% 30.16 in 9.0 mi NNW 3.5 mph - N/A   Overcast
3:57 AM 46.9 °F - 43.0 °F 86% 30.15 in 10.0 mi North 6.9 mph - N/A   Overcast
5:57 AM 48.9 °F - 42.1 °F 77% 30.18 in 10.0 mi North 4.6 mph - N/A   Overcast
6:57 AM 50.0 °F - 39.9 °F 68% 30.18 in 10.0 mi NNE 8.1 mph - N/A   Overcast
7:57 AM 48.0 °F - 34.0 °F 58% 30.21 in 10.0 mi North 6.9 mph - N/A   Overcast
8:57 AM 48.0 °F - 30.9 °F 52% 30.24 in 10.0 mi NNE 6.9 mph - N/A   Overcast
9:57 AM 48.0 °F - 34.0 °F 58% 30.25 in 10.0 mi NNE 11.5 mph 17.3 mph 0.00 in Rain Light Rain
10:57 AM 48.0 °F - 37.0 °F 66% 30.26 in 10.0 mi NNE 6.9 mph - 0.00 in Rain Light Rain
11:57 AM 50.0 °F - 32.0 °F 50% 30.27 in 10.0 mi NE 8.1 mph - 0.00 in   Overcast
12:57 PM 50.0 °F - 33.1 °F 52% 30.28 in 10.0 mi NNE 10.4 mph - N/A   Overcast
1:57 PM 52.0 °F - 33.1 °F 49% 30.25 in 10.0 mi NNE 6.9 mph - N/A   Overcast
2:57 PM 53.1 °F - 28.0 °F 38% 30.25 in 10.0 mi NE 8.1 mph - N/A   Mostly Cloudy
3:57 PM 55.0 °F - 28.9 °F 37% 30.23 in 10.0 mi Calm Calm - N/A   Mostly Cloudy
4:57 PM 54.0 °F - 34.0 °F 47% 30.23 in 10.0 mi ESE 10.4 mph - N/A   Clear
5:57 PM 53.1 °F - 34.0 °F 48% 30.25 in 10.0 mi ESE 6.9 mph - N/A   Clear
6:57 PM 51.1 °F - 36.0 °F 56% 30.25 in 10.0 mi ESE 6.9 mph - N/A   Clear
7:57 PM 50.0 °F - 36.0 °F 59% 30.25 in 10.0 mi East 9.2 mph - N/A   Clear
8:57 PM 48.9 °F - 35.1 °F 59% 30.28 in 10.0 mi East 8.1 mph - N/A   Clear
9:57 PM 46.0 °F 44.8 °F 33.1 °F 61% 30.31 in 10.0 mi NNE 3.5 mph - N/A   Clear
10:57 PM 46.0 °F 43.1 °F 33.1 °F 61% 30.31 in 10.0 mi NE 5.8 mph - N/A   Clear
11:57 PM 45.0 °F 41.8 °F 34.0 °F 65% 30.32 in 10.0 mi NNE 5.8 mph - N/A   Clear